Location: Hastringsfeld
(50.9620°N, 10.4787°E)
Time: 13:12:44
(UTC+00:00)

Cosmos 1933 - Pass Details

Date: 26 September 2023
Orbit: 536 x 548 km, 82.5° (Epoch: 29 November)

Event Time Altitude Azimuth Distance (km) Brightness Sun altitude
Exits shadow 03:23:20 39° 257° (WSW) 826 3.7 -17.3°
Maximum altitude 03:24:01 43° 286° (WNW) 771 3.7 -17.2°
Drops below altitude 10° 03:27:50 10° 358° (N) 1,812 6.2 -16.6°
Sets 03:30:05 0° 6° (N) 2,712 7.2 -16.3°
